星链-5512 (STARLINK-5512 )

导读

STARLINK-5512是美国SpaceX公司星链星座的第二代卫星,于2023年7月7日发射入轨。作为星链全球卫星互联网组网的一环,它运行在近地轨道,单颗重约386kg,配备相控阵天线与太阳能电池阵,采用Ku/Ka频段提供通信服务,可支持高速互联网接入,服役寿命约5到7年,退役后会主动离轨再入大气层销毁。

Basic Information
目录编号:
57256
目录名称:
STARLINK-5512
国际标识:
2023-094AQ
轨道中心:
EARTH
卫星名称:
星链-5512
卫星全名:
星链-5512 (STARLINK-5512 )
卫星状态:
在轨 (已飞行1155 天)
发射日期:
2023-07-07 UTC
国别 :
美国 (US)
星等 :
--
Orbit Information
数据来源 国际轨道数据
星历时间: 2026-09-03T23:09:08+0800
23小时前
查看轨道信息
半长轴: 6861.205km
偏心率: 0.0001585
轨道倾角: 43.006°
近地点辐角 268.734°
升交点赤经 94.996°
平近点角 91.333°
近地点: 481.98km
远地点: 484.156km
周期: 94.267分钟
每日圈数: 15.27574
Detailed Information
固有亮度:
5
最大亮度:
2.4
卫星平台:
Starlink v1.5
覆盖范围:
全球
运营商:
太空探索技术公司
运营商所在国:
美国
制造商(研发单位):
太空探索技术公司
制造商所在国:
美国
使用方式:
暂无
Satellite Introduction
星链(Starlink)计划是由太空探索技术公司(SpaceX)提出的一个巨型低轨卫星互联网星座项目,计划在2019年至2024年间在太空搭建由约1.2万颗卫星组成的“星链”网络,其中1584颗将部署在地球上空550千米处的近地轨道,并从2020年开始工作。该卫星仍在工作。
2D Orbit Map
3D Orbit Map
Orbit Altitude Analysis Chart
Orbit Inclination Analysis Chart
Orbit Comprehensive Analysis Chart
View Comprehensive Chart
Conjunction Data List
Event ID Objects TCA Miss Dist (km) Collision Risk Probability Collision Risk Index (CRI) Action
CDM_260906-132805-725606-385021
2026-09-06T
13:28:26+0000
0.707 km
远距离
4.043346E-5 中风险 0.67
CDM_260901-095705-725606-187223
OBJECT D (61872)
2026-09-01T
09:57:53+0000
1.136 km
极远距离
1.679794E-5 中风险 0.6
CDM_260906-150205-725606-385021
2026-09-06T
15:02:35+0000
1.389 km
极远距离
4.18486E-6 低风险 0.47
CDM_260905-054905-323305-725621
2026-09-05T
05:49:13+0000
2.672 km
极远距离
1.504692E-6 低风险 0.39
CDM_260901-121905-725606-187221
OBJECT D (61872)
2026-09-01T
12:19:18+0000
2.961 km
极远距离
1.319775E-6 低风险 0.37
CDM_260906-115405-725606-385021
2026-09-06T
11:54:16+0000
2.752 km
极远距离
8.181827E-7 极低风险 0.33